STARLINK-1336, 45557

Orbit data source: Space-Track

STARLINK-1336, 45557 is a payload satellite owned by SpaceX/Seattle (US) in LEO that was launched on Wed, 22 Apr 2020 UTC via an FALCON 9 launch vehicle from the Air Force Eastern Test Range (AFETR). Payload-class satellites include a variety of spacecraft equipped with specific instruments for various scientific and technological missions. These include communications satellites like Starlink; space stations such as the ISS; scientific satellites like the Hubble; Earth observation satellites from companies like Planet Labs, Umbra, and HawkEye 360; GPS; miniature CubeSats for education and research; and military/defense satellites.

Loading next visibility...
Identifier
45557, 2020-025AC
Orbit
LEO
Last TLE update
20 hours ago
Origin
Manufacturer
SpaceX/Seattle
Mission
Operational Commercial Communications
Bus & Motor
STARLINK, Unknown motor
Mass
260 kg wet, ~248 kg dry
Launch date (UTC)
2020-04-22 (5 years ago)
Launch vehicle
FALCON 9
Launch site
Air Force Eastern Test Range (AFETR)
Object type
Payload
Rocket body
Debris
Shape & HBR
Box + 1 Pan, 8.86 m
Radar Cross Section
13.562 m², Large (>1 m²)

Expand to show TLE details & history

TLE from 20 hours ago
0 STARLINK-1336
1 45557U 20025AC  25128.38938357  .00000349  00000-0  42311-4 0  9990
2 45557  53.0558  17.1629 0001599  88.4644 271.6528 15.06404197279352
Epoch: 2025-05-08T09:20Z
Definitive object data (Epoch: 2025-05-08T09:20:42.74Z)
Latitude
-0.00003°
Longitude
10.52421°
Altitude
548.046 km
Speed
7.589 km/s
True Right ascension
01h 08m 39s
True Declination
0° 00' 00"
Sunlit
Object was in daylight at TLE epoch
Visualization TLE readout
Latitude
-25.97225°
Longitude
-151.86038°
Altitude
555.393 km
Speed
7.584 km/s
Apparent Right ascension
16h 37m 29s
Apparent Declination
-76° 08' 28"
Sunlit
Object is in full shadow
Visualization observer readout
Local Sidereal Time
13:32:19
Azimuth
168.498° S
Elevation
-29.738°
Doppler factor
1
Orbital elements
Apogee altitude
548.577 km
Perigee altitude
546.362 km
Semi-major axis
6,925.606 km
Eccentricity
0.0001599
Inclination
53.0558°
RAAN
17.1629°
Arg. of periapsis
88.4644°
True anomaly
271.63448°
Mean anomaly
271.6528°
Eccentric anomaly
271.64364°
Mean motion
3.76579 °/min
BSTAR
0.000042311
Orbital period
95.6 mins
Loading maneuver chart data...
Loading SW <> Apogee altitude chart data...
Loading historical data...
Loading historical data...
Loading historical data...
Loading historical data...
Loading historical data...
Loading historical data...
Loading historical data...

STARLINK-1336 Visibility forecast

Observer location: undefined°, undefined°

Span
Click to sort rows by Start time (UTC) header in descending order
Start Az.
Max El. time (UTC)
Max El. Az.
Max El.
End time (UTC)
End Az.
7 mins2025-05-09 18:57:39.677Z223.742° SW2025-05-09 19:00:39.677Z180.875° SSW44.054°2025-05-09 19:04:39.677Z52.635° ENE
5 mins2025-05-09 20:38:39.677Z296.304° NW2025-05-09 20:40:39.677Z334.029° NNW21.004°2025-05-09 20:43:39.677Z26.328° NE
4 mins2025-05-10 00:00:39.677Z348.438° N2025-05-10 00:02:39.677Z25.933° NE18.415°2025-05-10 00:04:39.677Z59.636° ENE
6 mins2025-05-10 01:39:39.677Z314.114° NW2025-05-10 01:42:39.677Z78.734° E43.85°2025-05-10 01:45:39.677Z124.637° SE
|